Pittsfield, MA

1:35 PM EST on December 15, 2019 (GMT -0500)
Pittsfield Municipal

Weather History for KPSF - August, 2019

Change the Weather History Date:

Saturday, August 10, 2019

  Actual Average Record
Temperature  
Mean Temperature 65 °F 67 °F  
Max Temperature 74 °F 78 °F 92 °F (1949)
Min Temperature 55 °F 57 °F 39 °F (1964)
Degree Days  
Heating Degree Days 0 1  
Month to date heating degree days 0 10  
Since 1 June heating degree days 67 142  
Since 1 July heating degree days 0 41  
Cooling Degree Days 0 4  
Month to date cooling degree days 40 40  
Year to date cooling degree days 316 217  
Since 1 June cooling degree days 310 204  
Growing Degree Days 15 (Base 50)    
Moisture  
Dew Point 52 °F    
Average Humidity 65    
Maximum Humidity 86    
Minimum Humidity 44    
Precipitation  
Precipitation 0.01 in 0.13 in 1.51 in (1946)
Month to date precipitation 0.49 1.44  
Year to date precipitation 26.63 27.13  
Sea Level Pressure  
Sea Level Pressure 29.77 in    
Wind  
Wind Speed 10 mph (West)    
Max Wind Speed 23 mph    
Max Gust Speed 29 mph    
Visibility 10 miles    
Events Rain    
T = Trace of Precipitation, MM = Missing Value Source: NWS Daily Summary

Daily Weather History Graph

Daily Weather History Graph

Search for Another Location

Airport or City:

Astronomy

Aug. 10, 2019 Rise Set
Actual Time 5:54 AM EDT 8:01 PM EDT
Civil Twilight 5:23 AM EDT 8:32 PM EDT
Nautical Twilight 4:45 AM EDT 9:10 PM EDT
Astronomical Twilight 4:04 AM EDT 9:51 PM EDT
Moon 4:44 PM EDT (8/10) 1:27 AM EDT (8/10)
Length of Visible Light 15h 08m
Length of Day
14h 07m
Waxing Gibbous, 79% of the Moon is Illuminated
Aug 10
Waxing Gibbous
Aug 15
Full
Aug 23
Last Quarter
Aug 30
New
Sep 5
First Quarter

Hourly Weather History & Observations

Time (EDT) Temp. Dew Point Humidity Pressure Visibility Wind Dir Wind Speed Gust Speed Precip Events Conditions
12:54 AM 62.1 °F 52.0 °F 70% 29.73 in 10.0 mi SSW 8.1 mph - 0.00 in   Partly Cloudy
1:54 AM 60.1 °F 53.1 °F 78% 29.72 in 10.0 mi SW 9.2 mph - N/A   Scattered Clouds
2:54 AM 59.0 °F 52.0 °F 78% 29.72 in 10.0 mi WSW 5.8 mph - N/A   Clear
3:54 AM 57.0 °F 51.1 °F 81% 29.73 in 10.0 mi WSW 6.9 mph - N/A   Clear
4:54 AM 57.9 °F 51.1 °F 78% 29.72 in 10.0 mi SW 5.8 mph - N/A   Clear
5:54 AM 57.9 °F 51.1 °F 78% 29.73 in 10.0 mi SW 8.1 mph - N/A   Clear
6:54 AM 59.0 °F 53.1 °F 81% 29.74 in 10.0 mi WSW 6.9 mph - N/A   Clear
7:54 AM 63.0 °F 54.0 °F 72% 29.75 in 10.0 mi West 9.2 mph - N/A   Clear
8:54 AM 64.9 °F 54.0 °F 68% 29.74 in 10.0 mi West 12.7 mph - N/A   Clear
9:43 AM 64.9 °F 54.0 °F 68% 29.81 in 10.0 mi West 15.0 mph 21.9 mph N/A   Mostly Cloudy
9:54 AM 64.9 °F 55.0 °F 70% 29.75 in 10.0 mi WNW 13.8 mph - N/A   Mostly Cloudy
10:11 AM 64.9 °F 55.0 °F 70% 29.82 in 10.0 mi WNW 10.4 mph 21.9 mph N/A   Mostly Cloudy
10:54 AM 64.9 °F 55.9 °F 73% 29.76 in 10.0 mi West 8.1 mph - 0.00 in Rain Light Rain
11:54 AM 70.0 °F 55.0 °F 59% 29.75 in 10.0 mi WNW 12.7 mph 19.6 mph 0.00 in   Mostly Cloudy
12:54 PM 71.1 °F 55.0 °F 57% 29.75 in 10.0 mi West 15.0 mph 20.7 mph N/A   Mostly Cloudy
1:54 PM 73.0 °F 53.1 °F 49% 29.74 in 10.0 mi West 18.4 mph 25.3 mph N/A   Partly Cloudy
2:54 PM 70.0 °F 52.0 °F 53% 29.74 in 10.0 mi NNW 15.0 mph 26.5 mph N/A   Mostly Cloudy
3:54 PM 71.1 °F 51.1 °F 49% 29.75 in 10.0 mi NW 16.1 mph 24.2 mph N/A   Scattered Clouds
4:54 PM 72.0 °F 48.9 °F 44% 29.75 in 10.0 mi West 12.7 mph 24.2 mph N/A   Scattered Clouds
5:54 PM 70.0 °F 46.9 °F 44% 29.77 in 10.0 mi West 12.7 mph 25.3 mph N/A   Clear
6:54 PM 66.9 °F 46.0 °F 47% 29.80 in 10.0 mi WNW 10.4 mph - N/A   Mostly Cloudy
7:54 PM 60.1 °F 51.1 °F 72% 29.85 in 10.0 mi Variable 5.8 mph - 0.01 in   Mostly Cloudy
8:54 PM 60.1 °F 52.0 °F 75% 29.86 in 10.0 mi NW 6.9 mph - 0.00 in   Overcast
9:54 PM 60.1 °F 51.1 °F 72% 29.86 in 10.0 mi WNW 10.4 mph - N/A   Overcast
10:54 PM 57.9 °F 51.1 °F 78% 29.86 in 10.0 mi West 8.1 mph - N/A   Clear
11:54 PM 55.9 °F 51.1 °F 84% 29.87 in 10.0 mi ESE 3.5 mph - N/A   Clear